map of BOS home
Great Circle Mapper logo
BOS - Airport
Location
City:  Boston, Massachusetts, United States
Name:General Edward Lawrence Logan International Airport
ICAO / IATA:KBOS / BOS
FAA:BOS

Details
Type:Airport (Part 139 Class I)
Use:Public/Civil, International (customs landing rights)
Latitude:4221'47"N (42.362942)
Longitude:7100'23"W (-71.006392)
Datum:WGS 1984
Elevation:20 ft (6 m)
Runways:6
Longest:10083 × 150 ft (3073 × 45.5 m), paved

Time
Time Zone:UTC-5 (DST-4)
Local Time:

Weather
METAR:KBOS 020354Z 23009KT 10SM FEW035 25/22 A2993 RMK AO2 SLP135 T02500217
TAF:KBOS 020301Z 0203/0306 21007KT P6SM SCT040
FM020900 22005KT P6SM BKN090
FM021400 21005KT P6SM BKN250
FM022300 20009KT P6SM BKN250

Related Locations
Nearby:
Farthest:MGV: 11763 mi / 18931 km
Margaret River, WA, AU

Find:

   beyond  
but within

Other Information
Maps:
Delays:
NOTAMs:
Links:
Sources:

  
flag of United States
flag of Massachusetts
flag of Boston
  

Airport Diagram

Airport diagram for BOS

Airport diagram PDF

Sectional Chart

Flight Planning
at skyvector.com

Satellite Image

Google Maps Satellite View

 

Copyright © 2004-2014 Karl L. Swartz. All rights reserved.
The Great Circle Mapper name and logo are trademarks of the Great Circle Mapper.
All other trademarks mentioned herein belong to their respective owners.
Please see credits for attibutions and further copyright information.

  Follow gcmap on Facebook Follow gcmap on Twitter

hCard Microformat

Geo Microformat